Weather History for KTOC - March, 2014

Change the Weather History Date:

Sunday, March 30, 2014

  Actual Average Record
Temperature  
Mean Temperature 56 °F -  
Max Temperature 70 °F 69 °F 71 °F (2015)
Min Temperature 43 °F 46 °F 42 °F (2015)
Degree Days  
Heating Degree Days 8    
Growing Degree Days 6 (Base 50)    
Moisture  
Dew Point 28 °F    
Average Humidity 38    
Maximum Humidity 68    
Minimum Humidity 14    
Precipitation  
Precipitation 0.00 in - - ()
Sea Level Pressure  
Sea Level Pressure 29.98 in    
Wind  
Wind Speed 7 mph (NW)    
Max Wind Speed 16 mph    
Max Gust Speed 26 mph    
Visibility 10 miles    
Events      
Averages and records for this station are not official NWS values.
T = Trace of Precipitation, MM = Missing Value Source: NWS Daily Summary

Daily Weather History Graph

Daily Weather History Graph

Search for Another Location

Airport or City:

Trip Planner

Search our weather history database for the weather conditions in past years. The results will help you decide how hot, cold, wet, or windy it might be!

Date:

Astronomy

Mar. 30, 2014 Rise Set
Actual Time 7:22 AM EDT 7:52 PM EDT
Civil Twilight 6:57 AM EDT 8:18 PM EDT
Nautical Twilight 6:28 AM EDT 8:47 PM EDT
Astronomical Twilight 5:57 AM EDT 9:18 PM EDT
Moon 7:07 AM EDT (3/30) 8:02 PM EDT (3/30)
Length of Visible Light 13h 20m
Length of Day
12h 29m
Waning Crescent, 0% of the Moon is Illuminated
Mar 30
Waning Crescent
Mar 30
New
Apr 7
First Quarter
Apr 15
Full
Apr 22
Last Quarter

Hourly Weather History & Observations

Time (EDT) Temp. Windchill Dew Point Humidity Pressure Visibility Wind Dir Wind Speed Gust Speed Precip Events Conditions
12:15 AM 49.1 °F - 36.1 °F 61% 29.87 in 10.0 mi NNW 6.9 mph 16.1 mph N/A   Clear
12:35 AM 49.1 °F - 36.0 °F 61% 29.87 in 10.0 mi NNW 6.9 mph 25.3 mph N/A   Scattered Clouds
12:55 AM 48.7 °F - 35.8 °F 61% 29.87 in 10.0 mi NW 16.1 mph 26.5 mph N/A   Scattered Clouds
1:15 AM 48.4 °F - 35.6 °F 61% 29.87 in 10.0 mi NNW 9.2 mph 19.6 mph N/A   Scattered Clouds
1:35 AM 48.2 °F - 35.6 °F 62% 29.87 in 10.0 mi West 4.6 mph - N/A   Clear
2:15 AM 47.8 °F - 35.2 °F 62% 29.88 in 10.0 mi West 8.1 mph - N/A   Clear
2:35 AM 47.7 °F - 35.1 °F 62% 29.88 in 10.0 mi West 6.9 mph - N/A   Clear
2:55 AM 47.3 °F - 34.9 °F 62% 29.89 in 10.0 mi WNW 5.8 mph 16.1 mph N/A   Clear
3:15 AM 46.8 °F - 34.7 °F 63% 29.88 in 10.0 mi NW 12.7 mph 21.9 mph N/A   Clear
3:35 AM 46.9 °F - 34.2 °F 61% 29.88 in 10.0 mi NW 12.7 mph 23.0 mph N/A   Clear
3:55 AM 46.8 °F - 34.2 °F 62% 29.89 in 10.0 mi NW 6.9 mph 20.7 mph N/A   Clear
4:15 AM 46.8 °F - 34.0 °F 61% 29.89 in 10.0 mi WNW 10.4 mph - N/A   Clear
4:35 AM 46.4 °F 42.9 °F 34.0 °F 62% 29.89 in 10.0 mi WNW 6.9 mph - N/A   Clear
4:55 AM 46.0 °F 41.4 °F 33.8 °F 62% 29.89 in 10.0 mi NW 9.2 mph - N/A   Clear
5:15 AM 46.2 °F 41.7 °F 33.8 °F 62% 29.90 in 10.0 mi NW 9.2 mph 18.4 mph N/A   Clear
5:35 AM 46.0 °F 40.2 °F 33.3 °F 61% 29.91 in 10.0 mi NW 12.7 mph 19.6 mph N/A   Clear
5:55 AM 45.5 °F 41.3 °F 33.1 °F 62% 29.92 in 10.0 mi West 8.1 mph 18.4 mph N/A   Clear
6:15 AM 45.3 °F 41.6 °F 32.9 °F 62% 29.93 in 10.0 mi West 6.9 mph - N/A   Clear
6:35 AM 44.8 °F 41.6 °F 32.9 °F 63% 29.93 in 10.0 mi WSW 5.8 mph - N/A   Clear
6:55 AM 43.3 °F 39.9 °F 33.3 °F 68% 29.94 in 10.0 mi SW 5.8 mph - N/A   Clear
7:15 AM 43.2 °F - 32.9 °F 67% 29.95 in 10.0 mi Calm Calm - N/A   Clear
7:35 AM 44.1 °F 40.8 °F 32.2 °F 63% 29.96 in 10.0 mi West 5.8 mph - N/A   Clear
7:55 AM 44.6 °F 41.4 °F 32.0 °F 61% 29.97 in 10.0 mi West 5.8 mph - N/A   Clear
8:15 AM 46.4 °F 42.9 °F 32.0 °F 57% 29.98 in 10.0 mi West 6.9 mph - N/A   Clear
8:35 AM 47.3 °F - 32.0 °F 55% 29.99 in 10.0 mi WNW 5.8 mph - N/A   Clear
8:55 AM 48.9 °F - 32.0 °F 52% 29.99 in 10.0 mi NW 5.8 mph - N/A   Clear
9:15 AM 50.9 °F - 31.3 °F 47% 29.99 in 10.0 mi North 6.9 mph - N/A   Clear
9:35 AM 51.8 °F - 30.2 °F 44% 29.99 in 10.0 mi North 4.6 mph - N/A   Clear
9:55 AM 52.5 °F - 29.8 °F 42% 29.99 in 10.0 mi ENE 3.5 mph - N/A   Clear
10:15 AM 53.1 °F - 28.0 °F 38% 30.00 in 10.0 mi NNE 4.6 mph - N/A   Clear
10:35 AM 55.8 °F - 27.5 °F 34% 30.01 in 10.0 mi Calm Calm - N/A   Clear
10:55 AM 56.8 °F - 27.3 °F 32% 30.01 in 10.0 mi Calm Calm - N/A   Clear
11:15 AM 57.9 °F - 27.3 °F 31% 30.02 in 10.0 mi Calm Calm - N/A   Clear
11:35 AM 59.4 °F - 27.3 °F 29% 30.02 in 10.0 mi ENE 6.9 mph - N/A   Clear
11:55 AM 60.8 °F - 26.4 °F 27% 30.02 in 10.0 mi East 4.6 mph - N/A   Clear
12:15 PM 61.5 °F - 25.5 °F 25% 30.02 in 10.0 mi Calm Calm - N/A   Clear
12:35 PM 63.5 °F - 22.6 °F 21% 30.00 in 10.0 mi NE 13.8 mph 19.6 mph N/A   Clear
12:55 PM 64.0 °F - 22.3 °F 20% 30.00 in 10.0 mi ENE 11.5 mph 19.6 mph N/A   Clear
1:15 PM 64.8 °F - 23.7 °F 21% 30.00 in 10.0 mi NE 9.2 mph - N/A   Clear
1:35 PM 64.6 °F - 21.7 °F 19% 30.00 in 10.0 mi NNE 5.8 mph 17.3 mph N/A   Clear
1:55 PM 66.0 °F - 22.5 °F 19% 29.99 in 10.0 mi ENE 11.5 mph 16.1 mph N/A   Clear
2:15 PM 66.9 °F - 21.9 °F 18% 29.99 in 10.0 mi ENE 8.1 mph - N/A   Clear
2:35 PM 67.6 °F - 22.3 °F 18% 29.99 in 10.0 mi NE 10.4 mph 17.3 mph N/A   Clear
2:55 PM 68.2 °F - 20.8 °F 17% 29.98 in 10.0 mi ENE 3.5 mph - N/A   Clear
3:15 PM 69.4 °F - 22.6 °F 17% 29.98 in 10.0 mi NE 6.9 mph - N/A   Clear
3:35 PM 68.9 °F - 22.5 °F 17% 29.98 in 10.0 mi NE 5.8 mph - N/A   Clear
3:55 PM 70.2 °F - 21.7 °F 16% 29.98 in 10.0 mi NW 12.7 mph 17.3 mph N/A   Clear
4:15 PM 70.0 °F - 20.5 °F 15% 29.97 in 10.0 mi NW 11.5 mph 19.6 mph N/A   Clear
4:35 PM 70.3 °F - 20.8 °F 15% 29.98 in 10.0 mi NW 8.1 mph 18.4 mph N/A   Clear
4:55 PM 70.7 °F - 19.4 °F 14% 29.97 in 10.0 mi WNW 9.2 mph - N/A   Clear
5:15 PM 70.2 °F - 20.3 °F 15% 29.97 in 10.0 mi NW 9.2 mph 17.3 mph N/A   Clear
5:35 PM 70.0 °F - 20.8 °F 16% 29.97 in 10.0 mi NNW 11.5 mph 18.4 mph N/A   Clear
5:55 PM 69.6 °F - 20.1 °F 15% 29.98 in 10.0 mi NNW 8.1 mph - N/A   Clear
6:15 PM 68.7 °F - 19.8 °F 16% 29.99 in 10.0 mi WNW 6.9 mph - N/A   Clear
6:35 PM 67.5 °F - 19.6 °F 16% 29.99 in 10.0 mi NW 11.5 mph - N/A   Clear
6:55 PM 66.2 °F - 21.6 °F 18% 30.00 in 10.0 mi NW 8.1 mph 16.1 mph N/A   Clear
7:15 PM 64.8 °F - 22.1 °F 20% 30.00 in 10.0 mi WNW 5.8 mph - N/A   Clear
7:35 PM 63.5 °F - 22.8 °F 21% 30.01 in 10.0 mi West 5.8 mph - N/A   Clear
7:55 PM 62.4 °F - 22.8 °F 22% 30.02 in 10.0 mi West 3.5 mph - N/A   Clear
8:15 PM 61.0 °F - 23.9 °F 24% 30.02 in 10.0 mi WNW 6.9 mph - N/A   Clear
8:35 PM 60.3 °F - 25.3 °F 26% 30.03 in 10.0 mi WNW 5.8 mph - N/A   Clear
8:55 PM 58.5 °F - 27.1 °F 30% 30.04 in 10.0 mi WSW 3.5 mph - N/A   Clear
9:15 PM 58.3 °F - 27.1 °F 30% 30.05 in 10.0 mi WNW 5.8 mph - N/A   Clear
9:35 PM 57.7 °F - 27.5 °F 31% 30.05 in 10.0 mi NW 5.8 mph - N/A   Clear
9:55 PM 57.0 °F - 27.5 °F 32% 30.07 in 10.0 mi WNW 5.8 mph - N/A   Clear
10:15 PM 56.5 °F - 27.3 °F 33% 30.07 in 10.0 mi WNW 6.9 mph - N/A   Clear
10:35 PM 55.9 °F - 27.5 °F 34% 30.07 in 10.0 mi WNW 4.6 mph - N/A   Clear
10:55 PM 55.6 °F - 27.5 °F 34% 30.08 in 10.0 mi WNW 4.6 mph - N/A   Clear
11:15 PM 55.4 °F - 27.3 °F 34% 30.09 in 10.0 mi NW 6.9 mph - N/A   Clear
11:35 PM 55.0 °F - 27.3 °F 34% 30.09 in 10.0 mi WNW 5.8 mph - N/A   Clear
11:55 PM 53.2 °F - 28.2 °F 38% 30.09 in 10.0 mi Calm Calm - N/A   Clear